Regional Weather Roundup
Issued by NWS

Home | Current Version | Previous Version | Graphics & Text | Print | Product List | Glossary Off
Versions: 1 2 3 4 5 6 7 8 9 10 11 12 13 14 15 16 17 18 19 20 21 22 23 24 25 26 27 28 29 30 31 32 33 34 35 36 37 38 39 40 41 42 43 44 45 46 47 48 49 50

000
ASUS43 KMPX 260010
RWRMN
WEATHER ROUNDUP FOR MINNESOTA
NATIONAL WEATHER SERVICE TWIN CITIES/CHANHASSEN MN
700 PM CDT MON JUL 25 2016


NOTE: "FAIR" INDICATES FEW OR NO CLOUDS BELOW 12,000 FEET WITH NO
SIGNIFICANT WEATHER AND/OR OBSTRUCTIONS TO VISIBILITY. N/A MEANS
CURRENT SKY AND/OR WEATHER CONDITIONS ARE NOT AVAILABLE.

MNZ060>063-068>070-260100-
   Twin Cities Metro

CITY           SKY/WX    TMP DP  RH WIND       PRES   REMARKS
TWIN CITIES    MOSUNNY   85  63  47 W8        30.02S
6HR MIN TEMP:  83; 6HR MAX TEMP:  87;

ST PAUL        SUNNY     84  62  47 W10       30.01F
CRYSTAL        SUNNY     84  62  47 W6        30.00F
BLAINE         MOSUNNY   84  63  48 W12       30.01F
LAKEVILLE      SUNNY     81  64  57 W5        30.03S
EDEN PRAIRIE   SUNNY     86  63  45 W3        30.01F
6HR MIN TEMP:  84; 6HR MAX TEMP:  88;

LAKEVILLE      SUNNY     81  64  57 W5        30.03S
SOUTH ST PAUL  SUNNY     84  60  42 W8        30.01S
LAKE ELMO      FAIR      82  64  54 W5        30.03S
$$
MNZ001>005-007-008-013>017-022>024-027-028-260100-
   Northwest Minnesota

CITY           SKY/WX    TMP DP  RH WIND       PRES   REMARKS
BEMIDJI        SUNNY     82  63  51 SW8       29.99S
HALLOCK        SUNNY     84  64  51 CALM      29.93S
ROSEAU         SUNNY     81  68  65 W5        29.95S
WARROAD        SUNNY     81  66  61 SW6       29.95F
THIEF RVR FALL SUNNY     83  68  60 S5        29.95F
CROOKSTON      SUNNY     86  66  51 S6        29.92F
FOSSTON        SUNNY     84  64  51 S8        29.97F
DETROIT LAKES  SUNNY     82  64  54 S9        30.00S
MOORHEAD       SUNNY     88  64  45 S6        29.94S
PARK RAPIDS    SUNNY     83  63  50 SW8       30.00S
MAHNOMEN       FAIR      83  69  62 S8        29.97S
$$
MNZ006-009>011-018-025>026-260100-
   North Central Minnesota

CITY           SKY/WX    TMP DP  RH WIND       PRES   REMARKS
BAUDETTE       SUNNY     81  60  48 W8        29.95F
FLAG ISLAND    SUNNY     81  57  44 W5        29.92S
INTL FALLS     SUNNY     80  60  50 W6        29.94S
6HR MIN TEMP:  78; 6HR MAX TEMP:  82;

WASKISH        SUNNY     81  66  61 SW7       29.97S
BIG FORK       SUNNY     82  63  51 W3        29.98S
LONGVILLE      SUNNY     82  63  51 W3        29.99F
GRAND RAPIDS   SUNNY     81  63  54 SW6       30.01S
ORR            SUNNY     81  57  44 W6        29.94S
COOK           SUNNY     81  61  50 W6        29.97S
WALKER         FAIR      82  63  52 W5        29.99S
$$
MNZ012-019>021-037-260100-
   Northeast Minnesota

CITY           SKY/WX    TMP DP  RH WIND       PRES   REMARKS
DULUTH         SUNNY     81  61  50 NW8       29.99S
6HR MIN TEMP:  79; 6HR MAX TEMP:  83;

ELY            SUNNY     79  57  47 W10       29.96F
HIBBING        SUNNY     79  60  52 W7        29.98S
EVELETH        SUNNY     81  55  41 W8        29.99S
DULUTH HARBOR  SUNNY     84  66  54 W9        29.95F
TWO HARBORS    SUNNY     84  66  54 CALM      29.95S
SILVER BAY     SUNNY     82  61  47 SW3       29.94S
GRAND MARAIS     N/A     79  49  34 W3        29.91S
G MARAIS ARPRT SUNNY     73  54  49 W5        29.99S
$$
MNZ029>031-032-039>041-046>048-054>057-064-260100-
   West Central Minnesota

CITY           SKY/WX    TMP DP  RH WIND       PRES   REMARKS
FERGUS FALLS   SUNNY     84  64  51 MISG      29.98S
WHEATON        SUNNY     86  70  58 S6        29.98F HX  90
MORRIS         SUNNY     84  66  54 S8        29.99F
ALEXANDRIA     SUNNY     83  64  52 SW10      30.03F
ELBOW LAKE     FAIR      83  69  63 S9        30.00S
WADENA         SUNNY     82  66  57 S7        30.00F
GLENWOOD       SUNNY     82  66  57 S9        30.03F
APPLETON       SUNNY     86  61  42 S7        30.00S
BENSON         SUNNY     84  64  51 SW5       30.01S
ORTONVILLE     SUNNY     84  63  48 S6        29.99F
MADISON        SUNNY     82  64  54 S5        30.01F
WILLMAR        FAIR      84  70  61 SW5       30.04S
$$
MNZ033>034-036-042>043-049>051-058-059-260100-
   Central Minnesota

CITY           SKY/WX    TMP DP  RH WIND       PRES   REMARKS
ST CLOUD       SUNNY     83  65  54 W9        30.02S
6HR MIN TEMP:  81; 6HR MAX TEMP:  85;

SAUK CENTRE    FAIR      82  68  61 S7        30.03F
PAYNESVILLE    SUNNY     82  66  60 SW6       30.03F
AITKIN         SUNNY     84  59  42 SW6       29.99S
PINE RIVER     SUNNY     82  64  54 SW6       30.03S
BRAINERD       SUNNY     83  62  49 W7        30.00F
STAPLES        SUNNY     82  63  51 SW6       30.01F
LONG PRAIRIE   FAIR      81  64  57 S8        30.03S
LITTLE FALLS   SUNNY     82  59  44 SW5       30.02S
LITCHFIELD     SUNNY     82  66  57 W3        30.03F
BUFFALO        SUNNY     83  63  51 W7        30.04S
MAPLE LAKE     SUNNY     83  66  55 W7        30.04S
HUTCHINSON     SUNNY     83  69  63 W3        30.04F
$$
MNZ037-044-045-052-053-260100-
   East Central Minnesota

CITY           SKY/WX    TMP DP  RH WIND       PRES   REMARKS
PRINCETON      SUNNY     84  64  51 W3        30.02S
MORA           SUNNY     79  61  53 SW5       30.02F
CAMBRIDGE      SUNNY     84  66  54 W6        30.00S
RUSH CITY      SUNNY     82  64  56 W3        30.01S
MOOSE LAKE     SUNNY     81  63  54 W3        29.98F
HINCKLEY       FAIR      82  64  54 W5        30.00F
CLOQUET        SUNNY     82  57  42 W5        29.99S
MCGREGOR       SUNNY     82  61  47 W5        30.00F
$$
MNZ071>073-080-081-089-090-097-098-260100-
   Southwest Minnesota

CITY           SKY/WX    TMP DP  RH WIND       PRES   REMARKS
MONTEVIDEO     SUNNY     84  64  51 W5        30.03F
GRANITE FALLS  SUNNY     86  70  58 S3        30.03F HX  90
CANBY          SUNNY     85  59  40 S7        30.03S
MARSHALL       SUNNY     85  66  53 SW5       30.03F
REDWOOD FALLS  SUNNY     85  62  46 W7        30.02F
OLIVIA         SUNNY     82  64  54 SW6       30.02F
PIPESTONE      SUNNY     82  63  51 S6        30.07S
WINDOM         SUNNY     82  63  51 SW6       30.06S
WORTHINGTON    SUNNY     82  64  54 MISG      30.07F
JACKSON        SUNNY     82  61  47 W3        30.07F
TRACY          SUNNY     84  64  51 SW7       30.05S
SLAYTON        SUNNY     83  62  50 S7        30.07F
$$
MNZ065>067-074>077-082>085-091>093-260100-
   South Central Minnesota

CITY           SKY/WX    TMP DP  RH WIND       PRES   REMARKS
MANKATO        SUNNY     82  63  51 W5        30.04S
NEW ULM        SUNNY     84  64  51 W3        30.03F
ST JAMES       SUNNY     79  61  53 CALM      30.05F
FAIRMONT       SUNNY     84  63  48 NW5       30.05S
GLENCOE        SUNNY     83  67  58 W3        30.03S
FARIBAULT      SUNNY     81  66  61 CALM      30.04F
OWATONNA       SUNNY     81  64  57 W3        30.05S
WASECA         SUNNY     79  64  61 NW3       30.06S
ALBERT LEA     SUNNY     81  64  57 N3        30.06S
$$
MNZ078>079-086>088-094>096-260100-
   Southeast Minnesota

CITY           SKY/WX    TMP DP  RH WIND       PRES   REMARKS
ROCHESTER      SUNNY     80  65  59 NW7       30.05F
6HR MIN TEMP:  80; 6HR MAX TEMP:  83;

RED WING       SUNNY     84  61  45 NW3       30.00S
STANTON        SUNNY     82  63  51 W8        30.02S
DODGE CENTER   SUNNY     81  63  54 NW7       30.05F
WINONA         SUNNY     81  61  50 NW6       30.01F
AUSTIN         SUNNY     81  63  54 N6        30.05S
PRESTON        SUNNY     79  63  58 N6        30.05S
$$
ABBREVIATIONS USED IN REMARKS
   TC - TEMPERATURES IN CELSIUS
  WCI - WIND CHILL INDEX
   HX - HEAT INDEX
  VSB - VISIBILITY
$$




USA.gov is the U.S. government's official web portal to all federal, state and local government web resources and services.